Regional Weather Roundup
Issued by NWS

Home | Current Version | Previous Version | Graphics & Text | Print | Product List | Glossary On
Versions: 1 2 3 4 5 6 7 8 9 10 11 12 13 14 15 16 17 18 19 20 21 22 23 24 25 26 27 28 29 30 31 32 33 34 35 36 37 38 39 40 41 42 43 44 45 46 47 48 49 50
000
ASUS43 KMKX 121221
RWRWI

WISCONSIN REGIONAL WEATHER ROUNDUP
NATIONAL WEATHER SERVICE MILWAUKEE/SULLIVAN WI
700 AM CDT SAT JUL 12 2014

NOTE: "FAIR" INDICATES FEW OR NO CLOUDS BELOW 12,000 FEET WITH NO
SIGNIFICANT WEATHER AND/OR OBSTRUCTIONS TO VISIBILITY.

WIZ001-002-006>008-014>016-023>028-121300-
NORTHWEST WISCONSIN

CITY           SKY/WX    TMP DP  RH WIND       PRES   REMARKS
SUPERIOR ARPT  CLOUDY    63  62  99 CALM      30.01R
6HR MIN TEMP:  59; 6HR MAX TEMP:  67;

ASHLAND        CLOUDY    67  65  93 W5        30.01R FOG
6HR MIN TEMP:  64; 6HR MAX TEMP:  67;

HAYWARD        CLOUDY    63  63 100 CALM      30.02S FOG
6HR MIN TEMP:  60; 6HR MAX TEMP:  65;

SIREN          FOG       66  65  97 CALM      30.02S VSB<1/4
6HR MIN TEMP:  63; 6HR MAX TEMP:  69; 6HR PCP:  0.01;

RICE LAKE      CLOUDY    66  64  95 CALM      30.03S FOG
6HR MIN TEMP:  61; 6HR MAX TEMP:  67;

LADYSMITH      CLOUDY    67  65  96 S3        30.05S FOG
6HR MIN TEMP:  64; 6HR MAX TEMP:  67;

EAU CLAIRE     CLOUDY    69  68  96 CALM      30.01F
6HR MIN TEMP:  66; 6HR MAX TEMP:  72;

MENOMONIE      CLOUDY    69  68  94 CALM      30.01F
6HR MIN TEMP:  67; 6HR MAX TEMP:  72;

NEW RICHMOND   CLOUDY    68  67  98 S3        30.01F FOG
6HR MIN TEMP:  65; 6HR MAX TEMP:  69;

OSCEOLA        PTSUNNY   68  68 100 CALM      30.02F FOG
6HR MIN TEMP:  67; 6HR MAX TEMP:  71;

$$

WIZ003>005-009-010-017-018-121300-
NORTH CENTRAL WISCONSIN

CITY           SKY/WX    TMP DP  RH WIND       PRES   REMARKS
WOODRUFF       CLOUDY    65  63  90 W3        30.04S FOG
6HR MIN TEMP:  62; 6HR MAX TEMP:  67;

RHINELANDER    PTSUNNY   67  64  90 SW6       30.05S
6HR MIN TEMP:  63; 6HR MAX TEMP:  67;

EAGLE RIVER    CLOUDY    65  64  99 SW5       30.03S
6HR MIN TEMP:  60; 6HR MAX TEMP:  67;

LAND O LAKES   CLOUDY    67  65  94 W5        30.04S FOG
6HR MIN TEMP:  65; 6HR MAX TEMP:  67;

PHILLIPS       CLOUDY    67  66  95 SW3       30.03S
6HR MIN TEMP:  64; 6HR MAX TEMP:  67;

TOMAHAWK       PTSUNNY   66  63  90 CALM      30.05S
6HR MIN TEMP:  64; 6HR MAX TEMP:  66;

MEDFORD        CLOUDY    66  64  94 W3        30.05S
6HR MIN TEMP:  64; 6HR MAX TEMP:  67;

MERRILL        CLOUDY    66  64  95 CALM      30.04S
6HR MIN TEMP:  62; 6HR MAX TEMP:  67;

$$

WIZ029-030-035-036-043>047-121300-
CENTRAL WISCONSIN

CITY           SKY/WX    TMP DP  RH WIND       PRES   REMARKS
WAUSAU         CLOUDY    69  63  81 NW5       30.03S
6HR MIN TEMP:  66; 6HR MAX TEMP:  69;

MOSINEE        CLOUDY    66  64  94 CALM      30.05S
MARSHFIELD     CLOUDY    68  65  90 W3        30.04S
6HR MIN TEMP:  65; 6HR MAX TEMP:  68;

STEVENS POINT  PTSUNNY   66  61  83 CALM      30.04S
6HR MIN TEMP:  63; 6HR MAX TEMP:  66;

WAUPACA        CLOUDY    68  62  83 CALM      30.03F
6HR MIN TEMP:  62; 6HR MAX TEMP:  68;

WAUTOMA        PTSUNNY   66  62  87 CALM      30.04S
6HR MIN TEMP:  60; 6HR MAX TEMP:  66;

WISC RAPIDS    PTSUNNY   69  63  81 CALM      30.04F
6HR MIN TEMP:  66; 6HR MAX TEMP:  69;

CAMP DOUGLAS   CLOUDY    67  67 100 SE3       30.02F
6HR MIN TEMP:  64; 6HR MAX TEMP:  71;

$$

WIZ011>013-019>022-031-037>040-048>050-121300-
NORTHEAST WISCONSIN

CITY           SKY/WX    TMP DP  RH WIND       PRES   REMARKS
ANTIGO         MOSUNNY   66  63  89 W6        30.05S
6HR MIN TEMP:  60; 6HR MAX TEMP:  66;

STURGEON BAY   MOSUNNY   66  57  72 CALM      30.03F
6HR MIN TEMP:  64; 6HR MAX TEMP:  66;

GREEN BAY      CLOUDY    68  62  81 CALM      30.02F
6HR MIN TEMP:  64; 6HR MAX TEMP:  68;

MANITOWOC      CLOUDY    62  59  90 CALM      30.04F
6HR MIN TEMP:  58; 6HR MAX TEMP:  62; 6HR PCP: TRACE;

APPLETON       CLOUDY    66  61  82 CALM      30.04F
CLINTONVILLE   CLOUDY    64  61  88 CALM      30.02F
OSHKOSH        CLOUDY    69  64  84 S3        30.03S
6HR MIN TEMP:  64; 6HR MAX TEMP:  69; 6HR PCP: TRACE;

$$

WIZ032>034-041-042-053>061-121300-
SOUTHWEST WISCONSIN

CITY           SKY/WX    TMP DP  RH WIND       PRES   REMARKS
LA CROSSE      CLOUDY    71  66  84 SE3       30.01S
6HR MIN TEMP:  70; 6HR MAX TEMP:  72;

SPARTA         CLOUDY    67  64  93 CALM      30.03S
6HR MIN TEMP:  62; 6HR MAX TEMP:  69;

VIROQUA        FAIR      68  68 100 S3        30.05S
6HR MIN TEMP:  67; 6HR MAX TEMP:  69;

BOSCOBEL       CLOUDY    69  66  90 CALM      30.04R
6HR MIN TEMP:  67; 6HR MAX TEMP:  72;

PRAIRIE DU CHI CLOUDY    69  66  89 CALM      30.03F
6HR MIN TEMP:  68; 6HR MAX TEMP:  70;

PLATTEVILLE    FAIR      67  66  94 CALM      30.06R
6HR MIN TEMP:  65; 6HR MAX TEMP:  70;

$$

WIZ056-057-062-063-064-067-068-121300-
SOUTH CENTRAL WISCONSIN

CITY           SKY/WX    TMP DP  RH WIND       PRES   REMARKS
BARABOO/DELLS  CLOUDY    70  64  81 CALM      30.04R
6HR MIN TEMP:  68; 6HR MAX TEMP:  70;

LONE ROCK      CLOUDY    72  66  81 W3        30.03R
6HR MIN TEMP:  70; 6HR MAX TEMP:  74;

WATERTOWN      PTSUNNY   68  63  84 CALM      30.03S
6HR MIN TEMP:  64; 6HR MAX TEMP:  68;

MADISON        CLOUDY    72  64  76 CALM      30.03S
6HR MIN TEMP:  69; 6HR MAX TEMP:  72;

MIDDLETON      FAIR      72  63  74 CALM      30.04S
6HR MIN TEMP:  68; 6HR MAX TEMP:  72;

MONROE         CLOUDY    68  64  88 S5        30.05R
JANESVILLE     PTSUNNY   70  64  83 CALM      30.03R
$$

WIZ051-052-058>065-066-070>072-121300-
SOUTHEAST WISCONSIN

CITY           SKY/WX    TMP DP  RH WIND       PRES   REMARKS
MILWAUKEE      PTSUNNY   72  61  68 S8        30.03S
6HR MIN TEMP:  69; 6HR MAX TEMP:  72;

WAUKESHA       MOSUNNY   70  61  73 S6        30.04S
MILWAUKEE/TIMM CLOUDY    72  59  64 S3        30.10R
RACINE         CLOUDY    70  62  76 S3        30.05S
6HR MIN TEMP:  69; 6HR MAX TEMP:  71;

BURLINGTON     PTSUNNY   67  63  86 CALM      30.04S
6HR MIN TEMP:  64; 6HR MAX TEMP:  67;

KENOSHA        CLOUDY    72  63  73 S8        30.04S
6HR MIN TEMP:  69; 6HR MAX TEMP:  72;

FOND DU LAC    CLOUDY    69  62  78 CALM      30.04R
6HR MIN TEMP:  63; 6HR MAX TEMP:  70; 6HR PCP: TRACE;

SHEBOYGAN      CLOUDY    64  61  90 CALM      30.04F FOG
6HR MIN TEMP:  61; 6HR MAX TEMP:  64; 6HR PCP: TRACE;

WEST BEND      CLOUDY    66  59  77 CALM      30.04S
JUNEAU         CLOUDY    68  48  48 CALM      30.05R
6HR MIN TEMP:  64; 6HR MAX TEMP:  68;

$$

LSZ147-162-121300-
LAKE SUPERIOR

STATION/POSITION TIME  TEMP    WIND        PRES    WAVE
                       AIR SEA DIR/SP/G            HT/PER
                 (UTC) (F)     (DEG/KT/KT) (MB)    (FT/S)
W MID LAKE BUOY  1150   44 38  260/  8/ 10 1015.1R   0
PORT WING        1100   62     250/  3/  4 1015.6R
SAXON HARBOR     1140             CALM     1015.9R
$$

LMZ867-665-643>646-121300-
LAKE MICHIGAN

STATION/POSITION TIME  TEMP    WIND        PRES    WAVE
                       AIR SEA DIR/SP/G            HT/PER
                 (UTC) (F)     (DEG/KT/KT) (MB)    (FT/S)
N MID LAKE BUOY  1150   57 55  210/ 14/ 16 1016.1R   2/ 4
NORTHPORT PIER   1100   63     180/  3/  6 1016.6R
KEWAUNEE LAKESHO 1200   53     170/  3/  4 1017.5F
SHEBOYGAN LAKESH 1200   66      90/  2/  2 1017.2F
PORT WASHINGTON  1140   59        CALM     1017.6S
MILWAUKEE LAKESH 1200   62     340/  1/  2   N/A
S MID LAKE BUOY  1150   63 58  150/  8/ 10 1017.7F   1
KENOSHA   LAKESH 1200   65     170/  9/ 10   N/A
$$

TC  - TEMPERATURE IN CELSIUS
VSB - VISIBILITY IN STATUTE MILES
WCI - WIND CHILL INDEX
HX  - HEAT INDEX




USA.gov is the U.S. government's official web portal to all federal, state and local government web resources and services.